Miscellaneous Local Product
Issued by NWS North Platte, NE

Home | Current Version | Previous Version | Text Only | Print | Product List | Glossary On
Versions: 1 2 3 4 5 6 7 8 9 10 11 12 13 14 15 16 17 18 19 20 21 22 23 24 25 26 27 28 29 30 31 32 33 34 35 36 37 38 39 40 41 42 43 44 45 46 47 48 49 50
000
AXUS43 KLBF 270910
MISLBF


WESTERN AND NORTH CENTRAL NEBRASKA HOURLY WEATHER ROUNDUP
NATIONAL WEATHER SERVICE NORTH PLATTE NE
300 AM CST THU NOV 27 2014

***STATIONS NOT REPORTING VARIABLES SUCH AS SKY/WEATHER OR
PRESSURE ARE PROVIDED BY THE NEBRASKA DEPARTMENT OF
ROADS...RAWS...AND APRS NETWORKS...AND ARE NOT UNDER
NATIONAL WEATHER SERVICE QUALITY CONTROL***

...OBSERVATIONS IN AND NEAR THE EASTERN PANHANDLE OF NEBRASKA...

CITY           SKY/WX    TMP DP  RH WIND       PRES   REMARKS
PINE RIDGE     MOCLDY    28  24  85 S6        30.22F WCI  22
CHADRON        CLEAR    N/A N/A N/A CALM      30.22S
ALLIANCE       PTCLDY    24  21  88 S7        30.21F WCI  16
SIDNEY         CLEAR     19  16  88 S3        30.23F
WHITECLAY        N/A     27  22  82 SE7         N/A  WCI  20
CRESCENT LAKE    N/A     24  22  92 S6          N/A  WCI  17
LISCO            N/A     22  18  83 E5          N/A  WCI  16
BIG SPRINGS      N/A     17  15  93 CALM        N/A
$$

...OBSERVATIONS IN NORTH CENTRAL NEBRASKA...

CITY           SKY/WX    TMP DP  RH WIND       PRES   REMARKS
VALENTINE      CLOUDY    23  18  81 E8        30.33F WCI  14
THEDFORD       CLOUDY    28  21  75 S6        30.32S WCI  22
AINSWORTH      CLOUDY    22  17  81 E6        30.34R WCI  15
O`NEILL        CLOUDY    17   9  70 NE7       30.42S WCI   7
ORD            CLOUDY    16  12  84 CALM      30.40S
BROKEN BOW     CLOUDY    22  16  78 S7        30.37R WCI  13
BROWNLEE         N/A     23  19  83 SE8         N/A  WCI  14
SPRINGVIEW       N/A     19  13  77 NE9         N/A  WCI   8
BREWSTER         N/A     26  21  80 S6          N/A  WCI  19
SARGENT          N/A     21  17  83 CALM        N/A
COMSTOCK         N/A     26  20  80 CALM        N/A
CHAMBERS         N/A     19   8  62 N5          N/A  WCI  12
$$

...OBSERVATIONS IN SOUTHWEST NEBRASKA AND FAR NORTHEAST COLORADO...

CITY           SKY/WX    TMP DP  RH WIND       PRES   REMARKS
WRAY           FAIR      24  21  90 S5        30.29F WCI  18
HOLYOKE        FAIR      21  19  93 SE6       30.28S WCI  14
IMPERIAL       PTCLDY    23  20  88 S8        30.32S WCI  14
OGALLALA       FOG      N/A N/A N/A CALM      30.31S VSB 3/4
NORTH PLATTE   CLOUDY    25  19  78 E3        30.35R
MCCOOK         CLEAR     25  17  72 SE5       30.37F WCI  19
LEXINGTON      MOCLDY    24  18  78 S3        30.40R
PAXTON           N/A     27  25  93 CALM        N/A
BRADY            N/A     22  17  80 CALM        N/A
GOTHENBURG       N/A     22  16  77 E3          N/A
CALLAWAY         N/A     22  18  84 S9          N/A  WCI  12
$$

...NORTH PLATTE AREA...

CITY           SKY/WX    TMP DP  RH WIND       PRES   REMARKS
AIRPORT        CLOUDY    25  19  78 E3        30.35R
DOWNTOWN         N/A     27  20  76 CALM        N/A
$$

...SOME WEATHER OBSERVATIONS FROM AROUND THE REGION...

CITY           SKY/WX    TMP DP  RH WIND       PRES   REMARKS
DENVER         MOCLDY    33  24  69 CALM      30.25R
LARAMIE        PTCLDY    35  21  56 SW3       30.28S
CHEYENNE       MOCLDY    43  24  47 W22G32    30.22S
SCOTTSBLUFF    CLEAR     16  15  96 CALM      30.22F
RAPID CITY     CLOUDY    21  19  92 E6        30.24S WCI  13
PIERRE         CLOUDY     8   4  83 E8        30.42F WCI  -4
WINNER         CLOUDY    17   8  67 E10       30.40S WCI   5
SIOUX FALLS    PTCLDY    -2  -8  76 N7        30.49F WCI -15
OMAHA          PTCLDY    16  11  80 N8        30.52R WCI   5
GRAND ISLAND   CLEAR     15  11  83 E6        30.43F WCI   6
KANSAS CITY    CLOUDY    26  21  81 NW10      30.46S WCI  16
WICHITA        PTCLDY    28  18  66 N5        30.47R WCI  23
HAYS           PTCLDY    25  10  54 E3        30.45R
LIBERAL        PTCLDY    21  10  63 SW7       30.43S WCI  13
GOODLAND       PTCLDY    25  20  81 S12       30.33S WCI  14
$$



USA.gov is the U.S. government's official web portal to all federal, state and local government web resources and services.